Location: Unspecified
(0.0000°N, 0.0000°E)
Time: 09:51:47
(UTC+00:00)

deb r/b Ablestar - Pass Details

Date: 20 February 2026
Orbit: 889 x 1146 km, 67.2° (Epoch: 10 March)

Event Time Altitude Azimuth Distance (km) Brightness Sun altitude
Exits shadow 03:50:25 57° 161° (SSE) 1,325 ? -35.1°
Drops below altitude 10° 03:56:00 10° 161° (SSE) 3,038 ? -33.7°
Sets 03:58:42 0° 161° (SSE) 3,993 ? -33.1°
